Location: ????????
(60.4333°N, 46.4710°E)
Time: 03:15:51
(UTC+00:00)

Cosmos 1763 Rocket - Pass Details

Date: 25 November 2020
Orbit: 732 x 780 km, 74.0° (Epoch: 19 January)

Event Time Altitude Azimuth Distance (km) Brightness Sun altitude
Rises 14:23:34 0° 230° (SW) 3,165 7.9 -15.9°
Reaches altitude 10° 14:25:58 10° 236° (SW) 2,241 7.0 -16.2°
Maximum altitude 14:30:55 52° 313° (NW) 913 4.1 -16.8°
Enters shadow 14:34:57 15° 26° (NNE) 1,902 5.2 -17.3°
